Regional Weather Roundup
Issued by NWS

Home | Current Version | Previous Version | Graphics & Text | Print | Product List | Glossary On
Versions: 1 2 3 4 5 6 7 8 9 10 11 12 13 14 15 16 17 18 19 20 21 22 23 24 25 26 27 28 29 30 31 32 33 34 35 36 37 38 39 40 41 42 43 44 45 46 47 48 49 50
000
ASUS43 KLSX 251259
RWRMO

WEATHER SUMMARY FOR MISSOURI
NATIONAL WEATHER SERVICE SPRINGFIELD MO
800 AM CDT SUN JUN 25 2017

NOTE: "FAIR" INDICATES FEW OR NO CLOUDS BELOW 12,000 FEET WITH NO
       SIGNIFICANT WEATHER AND/OR OBSTRUCTIONS TO VISIBILITY.
       CURRENT SKY AND/OR WEATHER CONDITIONS ARE NOT AVAILABLE FOR
       CHILLICOTHE AND FARMINGTON.

MOZ001>031-035>038-043-044-053-054-251400-
...NORTHERN AND WESTERN MISSOURI...

CITY           SKY/WX    TMP DP  RH WIND       PRES   REMARKS
KANSAS CTY INT SUNNY     64  51  62 N6        30.27S
KANSAS C DTWN  SUNNY     66  50  56 NW8       30.27S
LEE`S SUMMIT   SUNNY     66  52  60 NW8       30.27S
ST JOSEPH      SUNNY     61  52  72 NW3       30.30R
CHILLICOTHE      N/A     64  54  69 CALM      30.27R
KIRKSVILLE     SUNNY     63  50  62 NW7       30.24R

$$
MOZ066>068-077>081-088>096-101>105-251400-
...SOUTHWEST MISSOURI...

CITY           SKY/WX    TMP DP  RH WIND       PRES   REMARKS
SPRINGFIELD    MOSUNNY   66  53  63 SW5       30.28S
JOPLIN         MOSUNNY   71  60  68 S3        30.28S
BRANSON        PTSUNNY   64  55  72 CALM      30.30R

$$
MOZ032>034-039>042-045>050-055>058-069>072-251400-
...CENTRAL MISSOURI...

CITY           SKY/WX    TMP DP  RH WIND       PRES   REMARKS
COLUMBIA       SUNNY     65  53  65 W9        30.24R
JEFFERSON CITY MOSUNNY   67  52  58 NW7       30.24R
ROLLA          SUNNY     63  51  65 SW7       30.25R
SEDALIA        SUNNY     68  55  63 W9        30.26R
WARRENSBURG    MOSUNNY   63  52  67 W6        30.26R
OSAGE BEACH    SUNNY     63  54  72 W6        30.28R

$$
MOZ051-052-059>065-251400-
...EAST CENTRAL MISSOURI...

CITY           SKY/WX    TMP DP  RH WIND       PRES   REMARKS
ST LOUIS INTL  MOSUNNY   70  50  49 W13       30.22R
SPIRIT OF STL  SUNNY     66  53  63 W9        30.21R
ST CHARLES     SUNNY     66  51  58 W8        30.20S

$$
MOZ072>076-082>087-097>100-106>115-251400-
...SOUTH CENTRAL AND SOUTHEAST MISSOURI...

CITY           SKY/WX    TMP DP  RH WIND       PRES   REMARKS
CAPE GIRARDEAU SUNNY     63  56  78 W6        30.23R
FARMINGTON     SUNNY     65  55  70 MISG      30.26R
POPLAR BLUFF   SUNNY     65  57  75 CALM      30.24R
WEST PLAINS    MOSUNNY   67  52  58 W3        30.29R

$$



USA.gov is the U.S. government's official web portal to all federal, state and local government web resources and services.